Flag for U.S.A. Weather past 2 weeks in Las Cruces, New Mexico, U.S.A.

Now
71 °F

Passing clouds.


Feels Like: 70 °F
Forecast: 71 / 92 °F
Wind: 3 mph from Northeast

Location: Las Cruces International

Current Time: Jul 4, 2015 at 5:19:48 AM

Latest Report: Jul 4, 2015 at 4:55 AM


Visibility: 10 mi

Pressure: 30.08 "Hg (26.21 "Hg at 1187m altitude)

Humidity: 85%

Dew point: 66 °F

Location of Las CrucesLocation

Historic Weather in Las Cruces — Graph

°F

Las Cruces temperature yesterday

Maximum temperature yesterday: 92 °F (at 4:55 PM)
Minimum temperature yesterday: 68 °F (at 6:55 AM)
Average temperature yesterday: 79 °F

Past Weeks' High & Low Weather Summary

 TemperatureHumidityPressure
High103 °F (Jun 21, 3:55 PM)84% (Jul 3, 6:35 AM)30.27 "Hg (Jul 3, 6:35 AM)
Low64 °F (Jun 29, 6:15 AM)8% (Jun 21, 12:55 PM)29.92 "Hg (Jul 2, 6:35 PM)
Average82 °F36%30.11 "Hg
* Reported Jun 19 4:15 AM — Jul 4 4:15 AM, Las Cruces, Weather by CustomWeather, © 2015

Note: Actual official high and low records may vary slightly from our data, if they occured in-between our weather recording intervals... More about our weather records

Advertising

Las Cruces weather history for previous 24 hours

 ConditionsComfort  
Time TempWeatherWind HumidityBarometerVisibility
4:15 AM
Sat, Jul 4
72 °FMostly cloudy.3 mph83%30.08 "Hg10 mi
3:55 AM72 °FMostly cloudy.No wind80%30.08 "Hg10 mi
3:15 AM72 °FMostly cloudy.3 mph78%30.08 "Hg10 mi
2:55 AM72 °FPassing clouds.No wind79%30.08 "Hg10 mi
2:35 AM73 °FPassing clouds.No wind81%30.08 "Hg10 mi
2:15 AM74 °FThundershowers. Passing clouds.No wind73%30.08 "Hg10 mi
1:55 AM74 °FPassing clouds.5 mph72%30.08 "Hg10 mi
1:15 AM73 °FMostly cloudy.6 mph73%30.09 "Hg10 mi
12:55 AM73 °FOvercast.6 mph80%30.10 "Hg10 mi
12:35 AM73 °FOvercast.No wind76%30.09 "Hg10 mi
12:15 AM73 °FPassing clouds.3 mph77%30.08 "Hg10 mi
11:55 PM
Fri, Jul 3
73 °FPassing clouds.5 mph73%30.08 "Hg10 mi
11:15 PM71 °FLight rain. Partly cloudy.6 mph79%30.07 "Hg10 mi
10:55 PM70 °FThunderstorms. Overcast.15 mph77%30.07 "Hg3 mi
10:15 PM72 °FPassing clouds.7 mph78%30.08 "Hg10 mi
9:55 PM71 °FLight rain. Partly cloudy.9 mph79%30.06 "Hg10 mi
9:35 PM73 °FRain. Mostly cloudy.17 mph75%30.05 "Hg7 mi
9:15 PM74 °FStrong thunderstorms. More clouds than sun.6 mph76%30.04 "Hg4 mi
8:55 PM81 °FThundershowers. Overcast.9 mph45%30.03 "Hg10 mi
8:35 PM82 °FMostly cloudy.9 mph36%30.02 "Hg10 mi
8:15 PM81 °FBroken clouds.7 mph42%30.02 "Hg10 mi
7:55 PM83 °FPartly sunny.12 mph38%30.00 "Hg10 mi
7:35 PM86 °FPartly sunny.15 mph33%29.99 "Hg10 mi
7:15 PM89 °FPartly sunny.6 mph28%29.99 "Hg10 mi
6:55 PM89 °FScattered clouds.7 mph27%29.99 "Hg10 mi
6:35 PM90 °FScattered clouds.7 mph27%29.98 "Hg10 mi
6:15 PM90 °FScattered clouds.No wind26%29.99 "Hg10 mi
5:55 PM89 °FScattered clouds.No wind27%29.99 "Hg10 mi
5:35 PM89 °FSunny.5 mph27%29.99 "Hg10 mi
5:15 PM91 °FScattered clouds.5 mph27%30.00 "Hg10 mi
4:55 PM92 °FScattered clouds.6 mph26%30.01 "Hg10 mi
4:35 PM90 °FScattered clouds.6 mph28%30.02 "Hg10 mi
4:15 PM90 °FScattered clouds.No wind28%30.02 "Hg10 mi
3:55 PM88 °FScattered clouds.5 mph30%30.03 "Hg10 mi
3:15 PM86 °FScattered clouds.No wind33%30.05 "Hg10 mi
2:55 PM90 °FSunny.8 mph31%30.06 "Hg10 mi
2:15 PM89 °FSunny.5 mph31%30.08 "Hg10 mi
1:55 PM89 °FSunny.7 mph33%30.08 "Hg10 mi
1:35 PM88 °FSunny.9 mph33%30.08 "Hg10 mi
1:15 PM87 °FSunny.5 mph34%30.10 "Hg10 mi
12:55 PM86 °FSunny.10 mph36%30.10 "Hg10 mi
12:35 PM84 °FSunny.6 mph40%30.11 "Hg10 mi
12:15 PM82 °FSunny.No wind43%30.12 "Hg10 mi
11:55 AM80 °FSunny.No wind50%30.12 "Hg10 mi
11:35 AM78 °FSunny.No wind54%30.12 "Hg10 mi
11:15 AM78 °FSunny.5 mph57%30.13 "Hg10 mi
10:55 AM76 °FSunny.No wind59%30.13 "Hg10 mi
10:35 AM75 °FSunny.3 mph61%30.12 "Hg10 mi
10:15 AM74 °FSunny.No wind63%30.12 "Hg10 mi
9:55 AM74 °FScattered clouds.No wind63%30.12 "Hg10 mi
9:35 AM72 °FScattered clouds.No wind67%30.12 "Hg10 mi
9:15 AM71 °FScattered clouds.3 mph80%30.12 "Hg10 mi
8:55 AM70 °FRain. Overcast.5 mph81%30.12 "Hg7 mi
8:35 AM70 °FLight rain. Overcast.5 mph78%30.12 "Hg10 mi
8:15 AM70 °FMore clouds than sun.5 mph79%30.12 "Hg10 mi
7:55 AM69 °FLight rain. More clouds than sun.7 mph82%30.12 "Hg10 mi
7:35 AM69 °FLight rain. Overcast.8 mph82%30.12 "Hg10 mi
7:15 AM68 °FLight rain. Overcast.7 mph84%30.12 "Hg10 mi
6:55 AM68 °FRain. Overcast.9 mph81%30.12 "Hg10 mi
6:35 AM68 °FLight rain. Mostly cloudy.5 mph84%30.12 "Hg10 mi
6:15 AM69 °FLight rain. Mostly cloudy.5 mph80%30.12 "Hg10 mi
5:55 AM71 °FOvercast.7 mph69%30.13 "Hg10 mi
5:35 AM72 °FMostly cloudy.6 mph67%30.12 "Hg10 mi
5:15 AM72 °FOvercast.No wind67%30.11 "Hg10 mi
Weather by CustomWeather, © 2015

See weather overviewHow to use our weather pages